This is the latest recevied weather packets stored in our database for station/object CA3PBK-13. If no packets are shown the sender has not sent any weather packets the latest 1 day(s).
| Time | Temp. | Humidity | Pressure | Rain* | Wind** | Luminosity | Snow |
|---|---|---|---|---|---|---|---|
| 1778073189 | 17.78° C | 99% | 929.3 hPa | 0 mm | - | - | - |
| 1778073069 | 17.78° C | 99% | 929.3 hPa | 0 mm | - | - | - |
| 1778072110 | 16.67° C | 1% | 929.2 hPa | 0 mm | - | - | - |
| 1778070910 | 15.56° C | 1% | 929.2 hPa | 0 mm | - | - | - |
| 1778070310 | 14.44° C | 1% | 929.4 hPa | 0 mm | - | - | - |
| 1778069710 | 13.33° C | 1% | 929.3 hPa | 0 mm | - | - | - |
| 1778069110 | 12.22° C | 1% | 929.3 hPa | 0 mm | - | - | - |
| 1778068989 | 12.22° C | 1% | 929.3 hPa | 0 mm | - | - | - |
| 1778068510 | 12.22° C | 1% | 929.3 hPa | 0 mm | - | - | - |
| 1778068388 | 12.22° C | 1% | 929.3 hPa | 0 mm | - | - | - |
| 1778067669 | 12.22° C | 1% | 929.1 hPa | 0 mm | - | - | - |
| 1778066349 | 11.67° C | 1% | 928.6 hPa | 0 mm | - | - | - |
| 1778066110 | 11.67° C | 1% | 928.6 hPa | 0 mm | - | - | - |
| 1778064910 | 11.67° C | 1% | 928.2 hPa | 0 mm | - | - | - |
| 1778064310 | 11.67° C | 1% | 928 hPa | 0 mm | - | - | - |
| 1778063710 | 11.67° C | 1% | 928 hPa | 0 mm | - | - | - |
| 1778063110 | 11.67° C | 1% | 927.8 hPa | 0 mm | - | - | - |
| 1778062988 | 11.67° C | 1% | 927.8 hPa | 0 mm | - | - | - |
| 1778062748 | 11.67° C | 1% | 927.9 hPa | 0 mm | - | - | - |
| 1778062510 | 11.67° C | 1% | 927.7 hPa | 0 mm | - | - | - |
| 1778062389 | 11.67° C | 1% | 927.8 hPa | 0 mm | - | - | - |
| 1778061189 | 11.67° C | 1% | 927.3 hPa | 0 mm | - | - | - |
| 1778060711 | 11.67° C | 1% | 927.3 hPa | 0 mm | - | - | - |
| 1778060110 | 11.11° C | 1% | 927.2 hPa | 0 mm | - | - | - |
| 1778059869 | 11.11° C | 1% | 927.1 hPa | 0 mm | - | - | - |
* Rain latest hour (hover to see other rain measurements)
** Current wind speed in m/s (hover to see current wind gust speed)